Find Starlink 3838

NORAD ID: 52352 Int'l Des: 2022-045 Owner: SPXS Country: US Constellation: starlink operational
LEOCIRCULAR

实时位置

正在加载3D地球...

关于 Starlink 3838

正在加载描述...

即将过境

Passes for default location (London). Set your location on the main map for personalized predictions.

高度历史

Loading altitude history...

两行轨道根数

1 52352U 22045X 26126.44660470 .00000642 00000-0 58447-4 0 9992
2 52352 53.2181 299.8389 0001178 116.8872 243.2241 15.08832132224501
Epoch: May 6, 2026 • Age: 14 hours

当前状态

高度 541.7 km
速度 7.59 km/s
星下点 -3.84°S, 54.33°E
发射日期 Apr 29, 2022
运行时间 4 years
类型 internet

技术详情

分类 Payload
质量 297.00 kg
干质量 275.00 kg
总质量 297.00 kg
长度 0.20 m
直径 2.80 m
跨度 9.00 m
形状 Box + pan
制造商 SPXS
平台类型 Starlink
阶段状态 In Orbit
所有者/国家 SPXS/US

Most Searched